| time (UTC) | temp F | wind direction | speed MPH | gust MPH | rain 1hr in | rain 24hr in | rain mn in | humidity % | barometer mb |
| 20260504011553 | 49 | 0 | 0.0 | 0.0 | 0.00 | 0.00 | 0.00 | 47 | 1013.3 |
| 20260504010051 | 51 | 0 | 0.0 | 0.0 | 0.00 | 0.00 | 0.00 | 45 | 1013.0 |
| 20260504004623 | 52 | 0 | 0.0 | 0.0 | 0.00 | 0.00 | 0.00 | 42 | 1012.9 |
| 20260504003059 | 53 | 0 | 0.0 | 0.0 | 0.00 | 0.00 | 0.00 | 40 | 1012.7 |
| 20260504001619 | 54 | 0 | 0.0 | 2.0 | 0.00 | 0.00 | 0.00 | 40 | 1012.5 |
| 20260504000101 | 55 | 0 | 0.0 | 4.0 | 0.00 | 0.00 | 0.00 | 37 | 1012.4 |
| 20260503234604 | 56 | 0 | 0.0 | 3.0 | 0.00 | 0.00 | 0.00 | 34 | 1012.2 |
| 20260503233052 | 57 | 0 | 0.0 | 7.0 | 0.00 | 0.00 | 0.00 | 32 | 1012.2 |
| 20260503231550 | 57 | 0 | 0.0 | 11.0 | 0.00 | 0.00 | 0.00 | 32 | 1012.2 |
| 20260503230110 | 58 | 0 | 0.0 | 11.0 | 0.00 | 0.00 | 0.00 | 32 | 1011.9 |
| 20260503224556 | 58 | 227 | 1.0 | 7.0 | 0.00 | 0.00 | 0.00 | 31 | 1012.1 |
| 20260503223051 | 58 | 0 | 2.0 | 11.0 | 0.00 | 0.00 | 0.00 | 28 | 1012.0 |
| 20260503221603 | 59 | 0 | 2.0 | 13.0 | 0.00 | 0.00 | 0.00 | 27 | 1011.9 |
| 20260503220055 | 60 | 0 | 1.0 | 9.0 | 0.00 | 0.00 | 0.00 | 27 | 1011.8 |
| 20260503214600 | 61 | 225 | 0.0 | 8.0 | 0.00 | 0.00 | 0.00 | 27 | 1011.8 |
| 20260503213053 | 60 | 322 | 1.0 | 18.0 | 0.00 | 0.00 | 0.00 | 30 | 1011.8 |
| 20260503211556 | 60 | 0 | 0.0 | 8.0 | 0.00 | 0.00 | 0.00 | 31 | 1011.8 |
| 20260503210051 | 60 | 0 | 0.0 | 10.0 | 0.00 | 0.00 | 0.00 | 30 | 1011.9 |
| 20260503204554 | 60 | 297 | 4.0 | 16.0 | 0.00 | 0.00 | 0.00 | 27 | 1012.0 |
| 20260503203108 | 60 | 25 | 3.0 | 14.0 | 0.00 | 0.00 | 0.00 | 29 | 1012.0 |
| 20260503201555 | 59 | 211 | 4.0 | 15.0 | 0.00 | 0.00 | 0.00 | 29 | 1012.0 |
| 20260503200052 | 59 | 146 | 2.0 | 8.0 | 0.00 | 0.00 | 0.00 | 39 | 1012.2 |
| 20260503194557 | 59 | 262 | 2.0 | 11.0 | 0.00 | 0.00 | 0.00 | 33 | 1012.2 |
| 20260503193055 | 59 | 0 | 3.0 | 15.0 | 0.00 | 0.00 | 0.00 | 36 | 1012.3 |
| 20260503191553 | 59 | 0 | 4.0 | 15.0 | 0.00 | 0.00 | 0.00 | 30 | 1012.4 |
| 20260503190058 | 59 | 309 | 2.0 | 13.0 | 0.00 | 0.00 | 0.00 | 33 | 1012.7 |
| 20260503184552 | 58 | 51 | 2.0 | 12.0 | 0.00 | 0.00 | 0.00 | 35 | 1012.8 |
| 20260503183055 | 57 | 326 | 1.0 | 14.0 | 0.00 | 0.00 | 0.00 | 35 | 1013.0 |
| 20260503181600 | 57 | 0 | 3.0 | 12.0 | 0.00 | 0.00 | 0.00 | 33 | 1013.1 |
| 20260503180055 | 56 | 303 | 3.0 | 11.0 | 0.00 | 0.00 | 0.00 | 37 | 1013.1 |
| 20260503174551 | 56 | 0 | 0.0 | 17.0 | 0.00 | 0.00 | 0.00 | 36 | 1013.0 |
| 20260503173055 | 55 | 0 | 2.0 | 16.0 | 0.00 | 0.00 | 0.00 | 38 | 1013.3 |
| 20260503171604 | 54 | 0 | 3.0 | 11.0 | 0.00 | 0.00 | 0.00 | 36 | 1013.3 |
| 20260503100106 | 42 | 0 | 0.0 | 4.0 | 0.00 | 0.00 | 0.00 | 61 | 1012.3 |
| 20260503081559 | 41 | 0 | 0.0 | 0.0 | 0.00 | 0.00 | 0.00 | 65 | 1011.4 |
| 20260503071601 | 42 | 0 | 0.0 | 0.0 | 0.00 | 0.00 | 0.00 | 65 | 1011.0 |
| 20260503060116 | 43 | 0 | 0.0 | 0.0 | 0.00 | 0.00 | 0.00 | 65 | 1011.4 |
| 20260503054605 | 43 | 0 | 0.0 | 0.0 | 0.00 | 0.00 | 0.00 | 67 | 1011.5 |
| 20260503053059 | 43 | 0 | 0.0 | 0.0 | 0.00 | 0.00 | 0.00 | 69 | 1011.7 |
| 20260503051559 | 42 | 0 | 0.0 | 0.0 | 0.00 | 0.00 | 0.00 | 67 | 1011.7 |
| 20260503050054 | 43 | 0 | 0.0 | 0.0 | 0.00 | 0.00 | 0.00 | 65 | 1011.8 |
| 20260503044554 | 43 | 0 | 0.0 | 0.0 | 0.00 | 0.00 | 0.00 | 62 | 1012.0 |
| 20260503043050 | 44 | 0 | 0.0 | 0.0 | 0.00 | 0.00 | 0.00 | 61 | 1012.0 |
| 20260503041553 | 45 | 0 | 0.0 | 0.0 | 0.00 | 0.00 | 0.00 | 61 | 1012.2 |
| 20260503040100 | 45 | 0 | 0.0 | 0.0 | 0.00 | 0.00 | 0.00 | 58 | 1012.3 |
| 20260503034553 | 45 | 0 | 0.0 | 0.0 | 0.00 | 0.00 | 0.00 | 59 | 1012.3 |
| 20260503033105 | 46 | 0 | 0.0 | 0.0 | 0.00 | 0.00 | 0.00 | 58 | 1012.2 |
| 20260503031555 | 46 | 0 | 0.0 | 0.0 | 0.00 | 0.00 | 0.00 | 58 | 1012.2 |
| 20260503030103 | 47 | 0 | 0.0 | 0.0 | 0.00 | 0.00 | 0.00 | 54 | 1012.3 |
| 20260503024552 | 47 | 0 | 0.0 | 0.0 | 0.00 | 0.00 | 0.00 | 53 | 1012.2 |
| 20260503023055 | 47 | 0 | 0.0 | 0.0 | 0.00 | 0.00 | 0.00 | 53 | 1012.3 |
| 20260503021552 | 48 | 0 | 0.0 | 0.0 | 0.00 | 0.00 | 0.00 | 50 | 1012.3 |
| 20260503020052 | 49 | 0 | 0.0 | 0.0 | 0.00 | 0.00 | 0.00 | 49 | 1012.2 |
| 20260503014558 | 49 | 0 | 0.0 | 5.0 | 0.00 | 0.00 | 0.00 | 48 | 1012.2 |
| 20260503013051 | 50 | 0 | 0.0 | 0.0 | 0.00 | 0.00 | 0.00 | 47 | 1012.0 |
| 20260503011554 | 50 | 0 | 0.0 | 0.0 | 0.00 | 0.00 | 0.00 | 48 | 1012.0 |
| 20260503010050 | 51 | 0 | 0.0 | 0.0 | 0.00 | 0.00 | 0.00 | 45 | 1011.9 |
| 20260503004614 | 51 | 0 | 0.0 | 0.0 | 0.00 | 0.00 | 0.00 | 46 | 1011.7 |
| 20260503003054 | 51 | 0 | 0.0 | 0.0 | 0.00 | 0.00 | 0.00 | 47 | 1011.7 |
| 20260503001553 | 51 | 0 | 0.0 | 0.0 | 0.00 | 0.00 | 0.00 | 45 | 1011.5 |
| 20260503000051 | 51 | 0 | 0.0 | 0.0 | 0.00 | 0.00 | 0.00 | 44 | 1011.4 |
| 20260502234559 | 52 | 0 | 0.0 | 0.0 | 0.00 | 0.00 | 0.00 | 44 | 1011.3 |
| 20260502233054 | 52 | 0 | 0.0 | 0.0 | 0.00 | 0.00 | 0.00 | 41 | 1011.2 |
| 20260502231600 | 53 | 0 | 0.0 | 1.0 | 0.00 | 0.00 | 0.00 | 38 | 1011.3 |
| 20260502230054 | 55 | 0 | 0.0 | 4.0 | 0.00 | 0.00 | 0.00 | 37 | 1011.3 |
| 20260502224553 | 55 | 0 | 0.0 | 2.0 | 0.00 | 0.00 | 0.00 | 37 | 1011.2 |
| 20260502223055 | 55 | 235 | 0.0 | 7.0 | 0.00 | 0.00 | 0.00 | 41 | 1011.2 |
| 20260502221552 | 56 | 318 | 0.0 | 3.0 | 0.00 | 0.00 | 0.00 | 36 | 1011.0 |
| 20260502220053 | 57 | 0 | 0.0 | 6.0 | 0.00 | 0.00 | 0.00 | 40 | 1011.0 |
| 20260502214551 | 58 | 302 | 0.0 | 9.0 | 0.00 | 0.00 | 0.00 | 37 | 1011.1 |
| 20260502213106 | 58 | 319 | 1.0 | 7.0 | 0.00 | 0.00 | 0.00 | 35 | 1011.0 |
| 20260502211558 | 57 | 348 | 0.0 | 6.0 | 0.00 | 0.00 | 0.00 | 39 | 1010.8 |
| 20260502210055 | 58 | 0 | 0.0 | 5.0 | 0.00 | 0.00 | 0.00 | 36 | 1010.6 |
| 20260502204551 | 58 | 350 | 0.0 | 8.0 | 0.00 | 0.00 | 0.00 | 39 | 1010.4 |
| 20260502203050 | 58 | 0 | 0.0 | 5.0 | 0.00 | 0.00 | 0.00 | 38 | 1010.6 |
| 20260502201551 | 57 | 0 | 0.0 | 5.0 | 0.00 | 0.00 | 0.00 | 38 | 1010.8 |
| 20260502200052 | 58 | 0 | 0.0 | 4.0 | 0.00 | 0.00 | 0.00 | 39 | 1011.0 |
| 20260502194549 | 58 | 238 | 0.0 | 4.0 | 0.00 | 0.00 | 0.00 | 41 | 1011.1 |
| 20260502193054 | 58 | 0 | 2.0 | 7.0 | 0.00 | 0.00 | 0.00 | 36 | 1011.4 |
| 20260502191550 | 58 | 31 | 0.0 | 4.0 | 0.00 | 0.00 | 0.00 | 43 | 1011.7 |
| 20260502190053 | 57 | 0 | 0.0 | 9.0 | 0.00 | 0.00 | 0.00 | 43 | 1011.9 |
| 20260502184557 | 58 | 0 | 1.0 | 5.0 | 0.00 | 0.00 | 0.00 | 37 | 1012.0 |
| 20260502183055 | 57 | 0 | 0.0 | 5.0 | 0.00 | 0.00 | 0.00 | 41 | 1012.1 |
| 20260502181555 | 58 | 0 | 0.0 | 6.0 | 0.00 | 0.00 | 0.00 | 40 | 1012.1 |
| 20260502180105 | 57 | 0 | 0.0 | 4.0 | 0.00 | 0.00 | 0.00 | 44 | 1012.2 |
| 20260502163059 | 56 | 0 | 2.0 | 9.0 | 0.00 | 0.00 | 0.00 | 44 | 1013.1 |
| 20260502161552 | 56 | 0 | 0.0 | 9.0 | 0.00 | 0.00 | 0.00 | 54 | 1013.2 |
| 20260502151553 | 52 | 0 | 1.0 | 9.0 | 0.00 | 0.00 | 0.00 | 55 | 1013.3 |